www.pogodaiklimat.ru

Погода и климат >> Архив погоды >> Россия >> Краснодарский край >> Кропоткин


ПОГОДА в Кропоткине

  • Прогноз погоды в Кропоткине
  • Монитор погоды в Кропоткине

АРХИВ ПОГОДЫ в Кропоткине

Время (UTC), дата Ветер
(напр.,м/с)
 
Видим.   Явления Облачность Т
(С)
Тd
(С)
f
(%)
Тe
(С)
Тes
(С)
Комфортность P
(гПа)
Po
(гПа)
Тmin
(С)
Tmax
(С)
R
(мм)
R24
(мм)
S
(см)
06 19.04 В 5-10
{10}
20 км 10/0
[Ac As]
+5.7 -5.1 46 +2 +3 1020.6 1007.5 +2.8
09 19.04 В 6-11
{13}
20 км 10/0
[Ac As]
+8.3 -8.1 30 +5 +7 1020.5 1007.5
12 19.04 В 6-12
{13}
20 км 10/4 600 м
[Cb cap Ac As]
+8.7 -2.0 47 +5 +6 1020.1 1007.1
15 19.04 СВ 6-10
{12}
20 км 10/0
[Ac As]
+8.5 -6.8 33 +5 +5 1020.1 1007.1 +9.2
18 19.04 В 5
{12}
20 км 8/0
[Ac cast]
+6.4 -7.1 37 +3 +3 1021.4 1008.3
21 19.04 В 4
{10}
20 км 6/0
[Ac cast]
+4.5 -6.6 44 +1 +1 1021.2 1008.0
00 20.04 В 4
{10}
20 км 3/0
[Ac trans]
+3.0 -4.5 58 -1 -1 1020.8 1007.5
03 20.04 В 4 20 км 8/0
[Ac trans Ci]
+2.8 -3.4 64 -2 -1 1021.2 1007.9 +2.8
06 20.04 В 5-11
{11}
20 км 6/0
[Ci fib]
+7.0 -3.7 46 +4 +7 1021.8 1008.7 +2.7
09 20.04 В 6-13
{14}
20 км 10/4
[Cu hum Cs]
+10.2 -3.6 38 +7 +10 1022.0 1009.0
12 20.04 В 6-11
{13}
20 км 10/4 600 м
[Sc Cs]
+10.3 -3.2 39 +8 +9 1022.0 1009.1
15 20.04 В 4
{13}
20 км 10/0
[Cs]
+9.4 -3.2 41 +7 +8 1022.2 1009.2 +11.4
18 20.04 В 3
{10}
20 км 6/0
[Ci fib]
+7.1 -1.7 54 +5 +5 1022.5 1009.5
21 20.04 В 3 20 км 4/0
[Ci fib]
+5.0 -2.0 61 +2 +2 1022.2 1009.0
00 21.04 В 3 20 км ясно +3.8 -1.8 67 0 0 1021.0 1007.8
03 21.04 В 4 20 км 6/0
[Ci]
+4.1 -1.3 68 0 0 1020.9 1007.7 +3.6
06 21.04 В 5-10
{10}
20 км 8/0
[Ac cast Cc]
+8.7 -2.3 46 +6 +9 1020.9 1007.9
09 21.04 В 6-14
{16}
20 км 6/0
[Cc]
+13.2 -6.7 24 +11 +17 1020.4 1007.6
12 21.04 В 5
{14}
20 км 8/4 600 м
[Cb cap Ci fib]
+14.7 -4.1 27 +14 +16 1019.9 1007.2
15 21.04 В 4
{13}
20 км 9/8 600 м
[Cb cap Ci]
+12.4 -4.0 32 +11 +11 1020.5 1007.6 +14.9
18 21.04 В 3 20 км 8/0
[Cc]
+9.7 -1.4 46 +8 +8 1021.2 1008.3
21 21.04 В 3 20 км 3/0
[Ci fib]
+7.3 -0.8 56 +5 +5 1021.4 1008.3
00 22.04 В 3 20 км ясно +5.1 -0.6 67 +2 +2 1021.5 1008.3
03 22.04 В 4 20 км 4/0
[Ci fib]
+3.9 -1.1 70 -0 -0 1021.8 1008.6 +3.6
06 22.04 В 5-12
{13}
20 км 10/0
[Ci fib]
+10.3 -1.4 44 +8 +11 1021.8 1008.8
09 22.04 В 7-13
{15}
20 км 8/5 600 м
[Cu hum Ci fib]
+14.5 -2.0 32 +13 +15 1021.8 1009.0
12 22.04 В 6-11
{15}
20 км 9/9 600 м
[Cb cap]
+14.4 -2.5 31 +13 +13 1021.7 1008.9
15 22.04 В 5-12
{12}
20 км 9/8 600 м
[Cb cap Ac trans Ci fib]
+13.9 -3.0 31 +12 +13 1022.0 1009.2 +15.3
18 22.04 СВ 1
{12}
20 км ясно +10.7 -1.6 42 +11 +11 1023.4 1010.5
21 22.04 В 3 20 км ясно +8.4 -1.3 50 +6 +6 1024.5 1011.4
00 23.04 В 2 20 км ясно +6.5 -1.5 57 +5 +5 1025.0 1011.9
03 23.04 СВ 1 20 км ясно +5.3 -1.7 61 +5 +5 1026.0 1012.8 +4.8
06 23.04 В 4 20 км ясно +14.2 -2.3 32 +13 +19 1026.8 1014.0
09 23.04 В 4
{11}
20 км ясно +17.2 -5.1 21 +17 +28 1027.1 1014.4
12 23.04 СВ 2 20 км 3/0
[Ci fib]
+18.4 -4.3 21 +19 +29 1026.9 1014.2
15 23.04 СВ 2 20 км 3/0
[Ci fib]
+16.9 -5.4 21 +17 +18 1027.1 1014.4 +18.8
18 23.04 С 1 20 км ясно +11.1 -2.5 39 +11 +11 1028.4 1015.4
21 23.04 СЗ 2 50 км ясно +6.6 -2.1 54 +5 +5 1028.4 1015.2
00 24.04 СЗ 1 20 км ясно +4.6 -1.0 67 +4 +4 1028.8 1015.5
03 24.04 Ю 1 20 км ясно +3.3 +1.3 87 +2 +2 1029.6 1016.2 +2.9
06 24.04 Ю 2 20 км ясно +12.5 +4.0 56 +12 +20 1029.3 1016.4
09 24.04 СЗ 2 20 км 8/0
[Ci]
+20.4 -0.0 26 +21 +35 комфорт 1027.7 1015.1
12 24.04 З 2 20 км 10/3
[Cu hum Cs]
+20.7 -0.6 24 +21 +27 комфорт 1026.6 1014.0
15 24.04 СЗ 3 20 км 10/0
[Ac trans Ci fib]
+19.4 -0.9 25 +20 +20 1025.9 1013.3 +22.2
18 24.04 СЗ 2 20 км ясно +13.4 +1.4 44 +13 +13 1026.9 1014.0
21 24.04 СЗ 2 20 км ясно +10.6 +0.8 51 +10 +10 1027.2 1014.2
00 25.04 ЮЗ 1 20 км ясно +8.9 +1.6 60 +9 +9 1027.6 1014.5
03 25.04 ЮЗ 2 20 км 3/0
[Ac trans]
+6.7 +4.0 83 +4 +5 1027.8 1014.6 +5.8
06 25.04 ЮЗ 2 20 км ясно +14.6 +6.0 56 +14 +23 1027.5 1014.7
09 25.04 З 3 20 км ясно +20.9 +4.7 35 +22 +35 комфорт 1026.4 1013.9
12 25.04 З 2 20 км ясно +23.5 +4.6 29 +23 +34 комфорт 1025.0 1012.6
15 25.04 СЗ 1 20 км 1/0
[Ci fib]
+21.3 +2.5 29 +21 +23 комфорт 1023.8 1011.4 +24.4
18 25.04 штиль 0 20 км ясно +14.9 +4.5 50 +15 +15 1024.5 1011.8
21 25.04 СЗ 2 20 км ясно +12.0 +4.0 58 +11 +11 1024.1 1011.2
00 26.04 штиль 0 20 км ясно +8.8 +3.2 68 +8 +8 1024.1 1011.1
03 26.04 Ю 1 20 км 3/0
[Ac cast]
+7.3 +4.1 80 +6 +7 1023.8 1010.7 +6.7

 

Местоположение метеостанции Кропоткин (Краснодарский край, Россия): широта 45.43 долгота 40.57 высота над уровнем моря 106 м.

В архиве по умолчанию представлена погода в Кропоткине за последнюю неделю. Архивные данные за месяц целиком и за предыдущие месяцы, начиная с января 2011 года, Вы можете получить, выбрав интересующий диапазон дат из раскрывающегося списка и нажав кнопку "Ввод!".


*Определитесь, кто Вы:
робот инопланетянин человек

Внимание! Время в таблицах - всемирное. Для получения местного времени необходимо прибавить поправку, которая равна 3 ч.

Смотрите также архив погоды в соседних городах и на ближайших метеорологических станциях:

Погода в Новоалександровске (Ставропольский край, Россия) (50 км)
Погода в Тихорецке (Краснодарский край, Россия) (60 км)
Погода в Дондуковской (Адыгея, Россия) (66 км)
Погода в Армавире (Краснодарский край, Россия) (66 км)
Погода в Усть-Лабинске (Краснодарский край, Россия) (69 км)
Погода в Белой Глине (Краснодарский край, Россия) (76 км)
Погода в Красногвардейском (Ставропольский край, Россия) (84 км)
Погода в Кореновске (Краснодарский край, Россия) (85 км)
Погода в Лабинске (Краснодарский край, Россия) (86 км)
Погода в Даховской (Адыгея, Россия) (86 км)

Пояснения к столбцам:

Ветер - указаны скорость ветра в м/с - средняя за 10 мин, порывы в срок и между сроками (в фигурных скобках) и направление, откуда дует ветер: С - северный, СВ - северо-восточный, В - восточный, ЮВ - юго-восточный, Ю - южный, ЮЗ - юго-западный, З - западный, СЗ - северо-западный.
Видимость - горизонтальная дальность видимости в метрах или километрах. При видимости от 1 до 10 км при отсутствии осадков обычно наблюдается дымка, при ухудшении видимости до 1 км и менее - туман. В сухую погоду видимость может ухудшаться дымом, пылью или мглою.
Явления - указаны атмосферные явления, наблюдавшиеся в срок или в последний час перед сроком; фигурными скобками обозначены явления, наблюдавшиеся между сроками (за 1-3 часа до срока); квадратными скобками обозначены град или гололедные отложения с указанием их диаметра в мм.
Облачность - указаны через наклонную черту общая и нижняя облачность в баллах и высота нижней границы облаков в метрах; квадратными скобками обозначены формы облаков: Ci - перистые, Cs - перисто-слоистые, Cc - перисто-кучевые, Ac - высококучевые, As - высокослоистые, Sc - слоисто-кучевые, Ns - слоисто-дождевые, Cu - кучевые, Cb - кучево-дождевые. Подробнее классификацию облаков см. в Атласе облаков (PDF).
T - Температура воздуха - температура, измеренная на высоте 2 м над землей.
Td - Температура точки росы - температура, при понижении до которой содержащийся в воздухе водяной пар достигнет насыщения.
f - Относительная влажность воздуха - влажноcть воздуха, измеренная на высоте 2 м над землей.
Te - Эффективная температура - температура, которую ощущает одетый по сезону человек в тени. Характеристика душности погоды. При расчете учитывается влияние влажности воздуха и скорости ветра на теплоощущения человека.
Tes - Эффективная температура на солнце - температура, которую ощущает человек, с поправкой на солнечный нагрев. Характеристика знойности погоды. Зависит от высоты солнца над горизонтом, облачности и скорости ветра. Ночью, в пасмурную погоду, а также при ветре 12 м/с и более поправка равна нулю.
P - Атмосферное давление - приведенное к уровню моря атмосферное давление.
Po - Атмосферное давление - измеренное на уровне метеостанции атмосферное давление.
Tmin - Минимальная температура - минимум температуры воздуха на высоте 2 м над землей.
Tmax - Максимальная температура - максимум температуры воздуха на высоте 2 м над землей.
R - Количество осадков - Количество выпавших осадков за период времени, мм. При наведении курсора мыши на число - период времени, за который выпало указанное количество осадков.
R24 - Количество осадков - Количество выпавших осадков за 24 часа, мм.
S - Снежный покров - Высота снежного покрова, см. При наведении курсора мыши на число - состояние снежного покрова и степень покрытия местности в баллах.